#timestamp,LO_Frequency,Hit,StdDev 
1649563215.3,286047001.9,N
1649563235.2,286047001.6,N
1649563255.0,286047004.4,N
1649563255.9,286047004.4,Y
1649563275.7,286046998.1,P
1649563295.6,286047000.8,N
1649563315.4,286046999.3,N
1649563365.3,286046998.7,E
1649563375.2,286047001.0,N
1649563395.1,286046998.0,P
1649563396.0,286046998.0,N
1649563415.8,286046996.7,N
1649563435.6,286046999.5,N
1649563455.5,286046998.5,N
1649563475.3,286047001.0,N
1649563495.1,286046998.4,N
1649563515.9,286047001.2,N
1649563535.7,286046999.3,N
1649563555.6,286046996.8,N
1649563575.4,286046997.6,N
1649563595.2,286046998.9,N
1649563615.1,286046998.7,N
1649563616.0,286046998.7,N
1649563635.8,286046997.1,N
1649563655.7,286046997.1,N
1649563675.5,286046998.3,N
1649563695.4,286047000.5,N
1649563715.2,286046999.0,N
1649563735.0,286047001.1,N
1649563735.9,286047001.1,N
1649563755.8,286047000.0,N
1649563775.6,286047002.1,N
1649563795.4,286047000.5,N
1649563815.3,286047000.4,N
1649563835.1,286047001.0,N
1649563855.9,286047001.6,N
1649563875.7,286047000.1,N
1649563895.5,286047001.3,N
1649563915.4,286047002.5,N
1649563935.2,286046998.9,N
1649563955.1,286046997.2,N
1649563956.0,286046997.2,N
1649563975.8,286046999.4,N
1649563995.6,286046999.4,N
1649564015.5,286046998.9,N
1649564035.3,286046998.2,N
1649564055.1,286046998.2,N
1649564075.9,286047000.3,N
1649564095.7,286046999.8,N
1649564115.6,286047001.9,N
1649564135.4,286047001.6,N
1649564155.2,286047002.0,N
1649564175.1,286047002.3,N
1649564176.0,286047002.3,N
1649564195.8,286047002.8,N
1649564215.6,286047002.8,N
1649564235.5,286047000.9,N
1649564255.3,286046998.3,N
1649564275.2,286047001.0,N
1649564295.9,286047001.1,N
1649564315.7,286046998.7,N
1649564335.6,286046998.9,N
1649564355.4,286046999.2,N
1649564375.2,286047000.7,N
1649564395.1,286046999.8,N
1649564396.0,286046999.8,N
1649564415.8,286046998.1,N
1649564435.7,286046998.1,N
1649564455.5,286046999.3,N
1649564475.3,286046998.8,N
1649564495.2,286046998.9,N
1649564515.0,286046997.0,N
1649564515.9,286046997.0,N
1649564535.8,286046997.0,N
1649564555.6,286046996.6,N
1649564575.4,286046996.6,N
1649564595.3,286046998.9,N
1649564615.1,286046997.3,N
1649564635.8,286046995.1,N
1649564655.7,286046993.9,N
1649564675.5,286046994.2,N
1649564695.4,286046994.6,N
1649564715.2,286046994.4,N
1649564735.0,286046992.0,Y
1649564735.9,286046992.0,P
1649564755.8,286046994.4,N
1649564775.6,286046993.3,N
1649564795.4,286046993.3,N
1649564815.3,286046993.9,N
1649564835.1,286046993.6,Y
1649564855.9,286047000.6,P
1649564875.7,286046998.9,N
1649564895.6,286046999.4,N
1649564915.4,286046999.2,N
1649564935.2,286046998.5,N
1649564955.1,286046998.2,N
1649564956.0,286046998.2,N
1649564975.8,286046998.4,N
1649564995.6,286047000.7,N
1649565015.5,286046998.1,N
1649565035.3,286046998.3,N
1649565055.2,286046998.9,N
1649565075.9,286046999.1,N
1649565095.7,286046999.4,N
1649565115.6,286046998.3,N
1649565135.4,286046998.8,N
1649565155.3,286046999.4,N
1649565175.1,286046997.0,N
1649565176.0,286046997.0,N
1649565195.8,286046997.2,N
1649565215.7,286046999.2,N
1649565235.5,286046999.6,N
1649565255.3,286046996.7,N
1649565275.2,286046995.1,Y
1649565295.0,286046997.8,P
1649565295.9,286046997.8,P
1649565315.8,286046995.2,P
1649565335.6,286046995.3,Y
1649565355.4,286046998.5,P
1649565375.3,286047000.8,N
1649565395.1,286046999.3,N
1649565415.9,286046998.8,N
1649565435.7,286046998.5,N
1649565455.5,286046999.6,N
1649565475.4,286046997.7,N
1649565495.2,286046999.4,N
1649565515.1,286046999.6,N
1649565516.0,286046999.6,N
1649565535.8,286046998.4,N
1649565555.6,286046998.6,N
1649565575.5,286046999.0,N
1649565595.3,286046996.5,Y
1649565615.2,286046999.4,P
1649565635.9,286046997.2,P
1649565655.7,286046995.0,P
1649565675.6,286046994.9,N
1649565695.4,286046997.1,N
1649565715.2,286046997.0,N
1649565735.1,286046997.0,N
1649565736.0,286046997.0,N
1649565755.8,286046996.8,N
1649565775.7,286046996.6,N
1649565795.5,286046996.9,N
1649565815.3,286046996.5,N
1649565835.2,286046999.2,N
1649565855.0,286046998.1,N
1649565855.9,286046998.1,N
1649565875.7,286047000.4,N
1649565895.6,286046998.6,N
1649565915.4,286046999.6,N
1649565935.3,286046997.7,N
1649565955.1,286046996.7,N
1649565956.0,286046996.7,N
1649565975.8,286046996.8,N
1649565995.7,286046997.3,N
1649566015.5,286046997.1,N
1649566035.3,286046996.7,N
1649566055.2,286046998.8,N
1649566075.0,286046998.5,N
1649566075.9,286046998.5,N
1649566095.8,286046997.0,N
1649566115.6,286046997.1,N
1649566135.4,286046997.1,N
1649566155.3,286046999.5,N
1649566175.1,286046997.2,N
1649566195.9,286046996.7,N
1649566215.7,286046997.0,N
1649566235.5,286046994.9,Y
1649566255.4,286046998.2,P
1649566275.2,286046998.8,P
1649566295.0,286047001.2,N
1649566295.9,286047001.2,N
1649566315.8,286046998.2,N
1649566335.6,286046998.1,N
1649566355.5,286047000.5,N
1649566375.3,286046998.3,N
1649566395.1,286047001.0,N
1649566415.9,286046999.4,N
1649566435.7,286046998.8,N
1649566455.6,286046998.8,N
1649566475.4,286046998.6,N
1649566495.2,286046998.1,N
1649566515.1,286046998.8,N
1649566516.0,286046998.8,N
1649566535.8,286047001.2,N
1649566555.6,286046998.5,N
1649566575.5,286046997.1,N
1649566595.3,286046997.5,N
1649566615.2,286046999.6,N
1649566635.9,286046999.2,N
1649566655.7,286046999.2,N
1649566675.6,286046999.2,N
1649566695.4,286046999.2,N
1649566715.3,286046994.9,Y
1649566735.1,286046999.1,P
1649566736.0,286046999.1,P
1649566755.8,286046998.6,P
1649566775.7,286047001.2,Y
1649566795.5,286047000.0,P
